Theta_e
318 319 319 319 318 318 319 319 318 318 318 318 318 318 318 318 318 318 318 318 318 317 318 318 317 317 317 317 316 316 316 317 318 317 317 317 316 317 317 317 317 317 318 318 317 318 318 318 319 320 321 320 319 319 319 318 318 319 320 320 319 320 321 321 322 323 322 321 321 321 321 322 322 322 322 322 322 322 321 322 323 323 323 323 323
317 319 319 319 319 318 318 318 318 318 318 318 317 317 317 317 317 317 318 317 317 317 317 318 317 317 317 316 316 316 316 317 317 317 317 316 317 317 316 317 317 317 318 317 317 318 318 318 319 320 321 320 319 319 318 317 316 318 319 319 319 320 321 321 322 322 321 321 320 321 321 321 321 321 322 321 321 321 321 321 322 323 323 323 323
317 318 318 318 318 318 318 318 318 317 317 317 317 317 317 317 317 317 317 317 317 317 317 317 317 317 316 315 316 316 316 316 316 317 317 316 316 316 317 317 317 318 317 317 317 318 319 318 318 319 320 320 319 319 318 315 316 318 317 318 320 320 320 321 321 321 321 320 320 321 321 321 321 320 321 321 321 321 321 321 321 322 324 324 323
317 318 318 318 318 318 318 318 317 317 317 317 317 317 317 317 317 317 317 317 317 317 317 317 316 317 316 315 316 316 316 316 316 317 317 316 316 316 316 317 317 317 317 317 317 318 318 318 318 318 319 319 319 319 317 314 316 318 316 316 319 320 319 320 320 320 320 320 320 320 321 322 322 320 320 321 321 321 321 321 321 322 323 324 323
318 317 318 318 318 318 318 317 317 317 317 317 317 317 317 317 317 317 317 316 316 316 316 316 316 316 315 316 316 316 316 316 317 317 316 316 316 316 316 316 317 316 316 317 317 317 317 318 317 317 318 319 318 318 316 314 316 317 316 316 318 318 318 319 320 319 319 319 320 320 321 321 322 322 321 321 321 321 321 321 321 322 322 323 323
318 317 318 318 318 318 317 317 317 317 317 317 317 317 317 317 317 317 317 316 317 316 316 316 316 316 315 315 316 315 315 316 316 316 316 316 316 316 316 316 316 316 316 317 317 317 317 317 317 318 318 318 318 318 315 314 315 316 315 316 316 315 317 319 319 318 318 319 320 320 321 321 321 321 322 321 321 321 321 321 321 322 322 322 323
318 317 317 318 318 318 317 317 317 317 317 317 317 316 317 317 317 317 316 316 317 316 316 316 316 315 315 315 316 315 314 315 316 316 316 316 316 315 316 316 316 316 317 317 317 317 317 318 318 317 317 317 318 317 316 315 315 315 315 314 315 315 316 317 318 318 318 319 320 320 321 321 321 321 321 321 321 322 321 321 321 322 321 322 323
318 317 317 318 318 317 317 317 317 317 317 317 317 317 317 316 316 316 316 316 316 316 316 316 316 315 315 315 315 315 315 316 316 316 315 315 315 316 316 316 315 316 317 316 316 317 317 318 317 316 315 316 317 317 316 314 315 316 314 314 315 315 316 318 318 318 318 319 320 320 321 321 321 321 321 321 321 322 321 321 321 321 321 321 322
318 317 318 317 317 318 318 317 317 317 317 317 317 317 316 316 316 316 316 316 316 316 316 315 315 315 315 315 315 315 315 316 316 315 315 315 315 316 315 314 315 316 317 316 316 318 317 317 316 315 315 314 315 317 315 315 315 315 315 315 314 315 316 317 317 317 318 318 319 319 320 321 321 321 320 320 320 321 321 321 321 321 321 320 321
318 318 318 317 317 318 318 317 317 317 317 317 317 317 316 316 316 316 315 316 316 315 315 315 315 315 315 314 314 315 316 316 316 315 315 315 315 314 314 314 315 316 316 316 317 318 317 316 315 314 314 313 314 316 315 314 315 314 314 314 314 314 315 316 317 317 318 318 318 318 320 320 321 321 320 320 320 321 321 321 320 320 321 320 320
318 318 318 317 317 317 317 317 317 317 318 317 317 317 316 316 316 315 315 316 315 315 315 314 314 314 314 314 313 314 315 315 315 315 314 314 314 314 314 314 315 315 315 316 317 317 316 315 314 313 313 313 314 315 314 314 314 314 314 313 314 314 315 316 316 317 318 318 318 318 319 320 321 321 320 320 320 320 320 320 320 320 320 320 320
318 317 318 317 318 317 317 317 317 318 318 317 317 317 316 316 316 315 315 316 316 315 315 314 314 314 313 313 312 313 315 316 315 314 313 313 314 313 313 314 315 315 315 316 316 316 315 314 313 312 313 313 313 314 313 313 313 313 314 313 314 314 315 316 316 318 318 318 319 319 319 320 321 321 321 320 319 319 319 319 320 320 319 320 321
318 318 318 318 318 317 318 318 317 318 317 317 317 317 316 316 315 315 315 316 316 315 315 314 313 313 313 313 312 312 314 316 314 312 312 313 313 313 313 313 315 315 315 315 314 314 313 312 312 311 312 313 313 313 312 311 312 313 313 313 313 314 314 315 317 318 318 319 320 321 321 320 321 322 322 321 320 319 319 319 319 318 317 318 320
318 318 318 318 318 317 318 317 317 318 317 317 317 317 316 316 316 315 315 315 315 315 314 314 313 313 313 312 312 311 312 314 312 311 312 312 312 312 312 313 314 315 315 315 313 312 312 312 312 312 312 313 314 314 312 311 312 313 312 312 312 314 315 316 317 317 319 320 321 322 322 321 321 321 321 321 320 320 319 319 318 317 317 318 320
318 318 318 319 318 317 318 317 317 317 317 317 317 317 317 316 316 315 315 315 315 315 314 314 313 313 312 311 312 312 312 313 311 310 312 311 311 312 312 313 314 314 314 313 312 312 312 312 312 312 312 313 314 314 313 312 312 312 312 312 312 314 315 316 317 319 321 322 322 321 322 321 321 321 320 320 319 319 319 318 318 318 318 320 320
318 318 318 319 318 318 317 317 317 317 317 317 317 317 317 316 316 315 315 315 315 314 314 314 313 312 312 311 311 312 312 312 311 311 311 310 311 312 312 314 314 313 314 313 312 312 312 312 312 311 311 313 314 314 313 312 312 312 312 312 313 314 315 317 319 320 322 322 322 321 321 322 321 320 319 319 319 319 319 319 318 319 319 321 321
318 318 319 319 319 318 317 316 317 317 318 317 317 317 317 316 316 315 315 315 315 314 314 313 312 312 312 311 311 311 312 311 311 311 310 310 311 312 313 314 313 313 313 312 312 312 312 312 312 311 312 313 313 314 313 311 312 312 312 312 314 315 316 318 320 321 321 322 322 321 321 321 320 319 319 319 319 319 320 319 320 320 320 320 320
319 318 318 319 319 319 317 317 318 318 318 317 316 317 318 316 315 315 315 315 315 314 314 313 312 312 312 311 310 310 311 311 311 311 310 310 311 312 313 313 313 313 312 312 312 312 312 312 312 312 312 312 313 313 312 311 312 312 311 312 314 315 317 319 321 320 320 322 322 321 320 318 318 320 320 319 318 319 320 320 321 320 320 321 320
320 319 319 319 319 318 317 318 319 319 318 317 316 318 317 316 315 315 315 315 314 314 313 313 312 312 311 311 310 310 310 310 311 311 311 311 312 312 312 313 313 312 312 312 312 312 312 312 312 312 312 313 312 312 311 311 312 312 310 312 313 314 317 320 322 320 318 320 321 319 318 318 319 320 320 319 318 319 320 320 321 320 320 320 320
320 319 319 319 319 318 318 319 319 319 318 315 316 318 317 316 315 315 315 314 314 314 313 313 312 312 311 311 310 310 310 310 310 311 312 313 313 312 312 313 313 312 312 312 312 312 312 312 312 312 312 313 312 311 311 312 313 311 310 311 311 313 317 321 321 319 318 320 320 320 319 318 320 320 320 319 318 319 320 319 319 319 320 320 320
320 320 319 318 318 319 319 319 318 319 318 313 313 316 317 316 315 315 315 314 314 314 313 313 312 312 311 310 310 310 309 310 310 311 312 313 313 313 312 313 312 311 311 312 312 311 311 312 312 311 312 312 312 311 311 312 312 310 310 311 311 312 316 321 321 320 319 319 320 320 320 319 319 320 320 319 319 319 319 318 318 319 321 321 320
320 320 317 315 319 320 317 317 317 318 316 310 312 315 314 313 313 314 315 314 314 314 313 313 312 312 311 310 310 309 309 310 311 311 312 312 313 313 313 313 312 311 311 311 312 312 311 312 312 312 312 312 312 310 311 312 312 310 309 310 311 312 316 320 321 320 319 319 319 320 320 319 320 320 319 319 318 318 318 318 318 319 321 321 320
315 314 312 314 319 317 311 310 312 314 310 305 307 308 306 309 313 315 314 313 314 313 313 313 312 312 311 310 310 309 309 310 310 311 311 312 312 313 312 312 312 312 311 311 311 311 311 312 312 312 312 312 311 310 311 312 312 310 309 310 310 311 315 319 320 321 320 319 319 319 319 320 320 319 319 318 318 318 318 318 319 320 320 321 321
317 316 315 317 318 313 309 308 306 307 304 301 302 301 302 307 313 316 314 313 315 313 312 312 311 312 311 310 310 309 309 311 311 311 312 312 312 312 312 312 312 311 311 310 310 312 312 312 312 312 313 312 311 310 311 312 312 311 310 310 310 310 313 317 320 322 321 320 319 319 320 320 320 320 319 319 319 319 319 318 320 321 321 320 320
321 320 318 320 320 316 313 308 303 303 301 300 300 299 304 308 312 316 315 313 315 313 312 312 312 312 311 310 309 309 310 311 311 311 312 311 311 312 312 312 311 311 311 310 310 312 312 311 312 312 312 312 311 310 310 311 312 311 310 310 310 310 311 314 319 321 322 320 320 319 320 320 320 320 320 319 320 320 319 320 320 320 320 320 320
319 320 320 320 318 313 311 306 304 304 301 300 299 299 310 314 312 314 315 314 314 313 312 313 312 312 311 310 309 309 310 310 310 311 311 311 311 311 311 311 311 311 310 309 310 312 312 311 312 312 312 312 311 310 310 311 312 312 311 310 310 310 310 311 315 320 322 321 320 319 319 319 320 320 320 319 319 319 319 319 318 318 320 320 320
312 317 318 315 311 309 307 305 305 305 301 300 299 300 310 313 311 313 314 314 314 312 312 313 312 312 312 310 309 309 310 310 310 311 311 311 311 311 311 311 311 311 310 309 309 311 311 311 312 312 312 311 312 310 309 311 312 312 311 310 309 310 309 309 312 317 321 321 320 320 319 319 319 320 320 319 319 319 318 318 319 319 320 320 320
311 310 309 308 307 307 306 304 305 305 303 301 299 300 304 307 311 314 314 315 314 312 313 314 313 312 310 310 309 309 310 310 310 311 311 311 311 311 311 311 311 311 310 309 310 311 311 312 312 312 312 311 312 310 309 310 311 311 311 310 309 309 309 309 310 314 320 321 320 320 320 319 319 320 320 320 319 318 318 318 319 318 318 319 320
310 307 307 307 306 305 306 305 305 305 305 302 300 300 302 304 312 314 313 315 314 311 313 313 312 310 308 308 309 309 310 310 310 311 311 311 311 311 311 311 311 311 311 310 311 311 312 312 312 312 312 311 312 310 309 309 310 310 310 310 310 308 308 309 309 311 317 320 321 320 320 320 319 319 319 319 319 318 318 319 319 319 319 319 318
309 308 308 308 307 306 308 308 308 307 308 307 302 300 301 305 311 313 313 315 313 311 312 312 309 309 308 308 309 309 309 309 310 311 311 311 311 311 311 311 310 310 311 311 311 311 312 312 313 312 312 311 311 311 309 308 309 309 309 310 310 308 308 309 309 309 314 318 320 321 321 321 320 319 319 319 318 317 317 317 319 320 320 318 318
314 312 311 311 311 311 314 314 312 311 311 310 307 303 302 305 310 313 314 313 310 310 311 309 307 308 308 308 309 309 309 309 310 311 311 311 311 311 310 311 310 310 310 310 311 311 312 313 313 312 313 311 311 311 309 307 308 308 308 309 309 308 308 309 309 309 311 316 319 321 321 321 320 320 320 320 319 318 317 317 319 320 319 318 319
317 313 311 311 312 315 317 317 315 315 314 312 311 307 303 306 311 314 314 310 308 311 311 308 307 307 307 307 309 310 309 309 310 311 311 311 311 311 310 310 310 309 309 310 311 312 312 312 313 312 313 312 310 311 310 308 308 308 308 308 308 307 307 308 308 308 310 314 317 319 320 320 319 319 319 320 320 319 318 319 320 321 321 320 321
315 312 310 311 313 316 317 317 316 315 315 314 313 310 304 307 313 316 313 308 308 311 310 308 307 305 305 307 309 310 309 309 311 311 311 311 311 311 310 310 310 310 309 310 311 312 312 312 313 313 312 312 311 310 310 309 309 308 308 308 307 306 306 307 308 307 308 312 315 316 318 319 320 320 320 320 321 320 320 320 322 322 321 321 322
308 308 308 309 312 316 317 316 314 314 315 313 313 310 303 303 309 313 313 311 309 310 310 310 308 305 305 307 308 309 309 309 310 311 311 311 311 311 311 310 310 310 310 310 311 311 312 312 313 313 312 312 311 310 310 310 310 309 308 308 307 306 305 307 307 306 307 310 313 314 316 318 318 319 320 320 320 320 320 320 321 321 320 320 321
305 305 306 308 311 314 315 314 314 314 314 314 312 310 304 302 306 310 312 312 311 310 311 310 308 304 304 306 307 309 309 309 310 311 311 310 310 311 311 310 310 310 309 310 311 312 312 313 313 313 312 312 311 310 310 310 310 310 308 308 307 306 306 306 307 306 306 308 311 313 314 316 317 317 318 319 319 320 320 320 320 320 319 320 320
304 304 306 309 311 312 312 313 313 312 312 314 313 311 307 304 306 307 308 311 311 310 311 310 308 306 303 305 308 308 308 309 309 310 310 310 311 310 310 310 309 309 309 310 311 312 312 313 313 313 312 312 311 311 310 310 310 310 308 308 308 307 306 306 306 306 306 307 309 311 312 313 314 315 315 316 317 318 319 319 320 320 319 320 320
304 304 307 309 311 313 313 314 314 312 312 314 313 312 309 304 305 304 304 307 308 308 310 309 308 307 303 304 308 307 307 309 309 309 310 309 310 310 309 309 309 309 310 311 311 312 312 312 313 312 312 312 311 311 311 310 311 310 308 308 308 307 307 306 305 305 306 307 308 309 311 312 312 312 313 313 313 314 316 317 317 318 318 317 318
307 308 309 311 313 314 315 316 314 313 313 314 313 312 307 303 305 305 304 307 306 306 310 308 307 308 305 304 307 307 307 309 307 307 307 306 309 310 308 307 307 309 311 312 312 312 312 312 312 312 312 311 311 311 311 310 310 310 308 308 308 307 307 307 306 305 306 307 308 308 309 310 310 310 310 311 311 311 312 313 313 313 314 314 314
313 313 312 314 315 315 316 317 315 313 314 314 313 311 306 302 303 305 307 310 308 307 310 309 309 310 307 305 307 306 305 305 304 303 303 304 306 307 306 305 307 309 311 312 312 312 312 312 312 312 312 311 311 311 311 310 310 310 309 308 308 307 307 307 307 307 307 308 308 308 308 309 309 308 308 309 309 309 310 310 310 310 310 310 310
319 318 317 317 317 317 317 317 317 315 314 312 310 308 306 303 302 304 307 308 308 308 310 310 309 309 307 305 306 306 302 301 302 302 303 303 304 305 305 305 308 310 311 312 313 313 313 313 312 312 312 310 310 311 311 311 311 310 309 308 308 307 307 307 307 307 307 308 308 308 308 308 309 309 309 309 309 309 309 309 309 309 309 309 309
322 321 320 319 318 318 317 317 318 317 315 311 307 306 306 304 302 303 303 304 307 310 311 309 307 307 306 305 306 305 302 300 301 302 302 303 305 306 306 306 308 311 312 312 313 313 313 313 312 312 312 311 310 311 311 311 311 310 309 308 308 307 307 307 306 306 307 308 308 308 308 308 309 309 309 310 310 311 311 311 311 311 311 311 312
324 324 323 322 321 319 318 317 317 316 315 312 308 307 307 306 304 302 300 303 307 308 307 304 303 305 305 304 306 306 303 301 302 304 304 304 306 307 307 307 308 310 311 312 312 312 312 313 312 312 312 311 311 312 312 311 311 311 309 308 308 307 307 307 306 306 306 307 307 308 308 308 309 309 309 309 309 310 311 311 311 311 311 311 312
325 325 324 323 322 321 319 318 317 316 314 312 310 308 307 307 307 304 300 300 302 305 307 304 302 306 307 305 305 306 306 304 303 305 308 307 306 308 308 307 308 309 311 311 311 312 312 312 312 312 311 311 311 312 312 311 311 311 309 308 308 307 307 307 306 306 306 307 307 307 308 309 309 309 309 309 309 308 308 308 308 308 308 308 309
326 325 325 324 323 322 321 319 318 316 315 313 311 309 307 307 308 305 301 297 297 302 308 307 305 307 307 304 303 305 307 307 305 306 310 309 307 308 309 308 308 308 309 310 310 311 311 312 311 311 311 311 311 312 312 311 311 310 309 309 308 307 307 307 307 306 306 307 307 307 308 309 309 309 309 309 308 307 307 307 307 308 308 308 307
327 326 326 325 325 324 323 321 320 319 317 315 312 310 308 307 307 305 301 298 295 298 306 309 308 308 306 303 303 306 307 308 307 307 309 309 309 309 309 309 309 307 308 310 310 310 310 311 311 311 311 311 311 311 311 311 311 310 310 309 308 308 307 307 307 306 306 307 307 308 308 308 308 308 309 308 308 308 308 308 308 308 308 308 308
327 327 326 326 325 324 324 323 322 322 321 319 315 313 310 307 305 304 303 300 296 295 303 309 310 308 307 303 303 307 308 308 308 307 307 309 309 309 309 310 310 308 307 310 310 309 309 310 310 310 310 310 310 310 310 311 311 310 310 309 309 308 308 307 307 307 307 307 307 308 308 307 308 308 308 308 308 308 308 308 308 308 308 309 309
328 327 326 326 325 324 324 324 323 323 322 321 318 315 313 309 305 305 304 302 299 295 298 306 309 309 306 301 301 306 308 308 308 306 305 308 309 309 310 310 310 308 307 309 310 309 309 309 309 310 310 310 310 310 310 310 310 310 310 309 309 309 308 307 307 307 307 307 307 308 307 306 307 308 308 308 308 308 308 308 308 308 308 308 308
326 326 325 325 324 324 324 323 323 323 322 320 318 316 315 310 306 306 305 302 300 296 295 302 308 309 305 300 299 304 306 307 307 303 304 309 309 309 310 309 309 309 308 309 310 309 309 309 309 309 310 309 310 310 309 310 310 311 310 309 309 309 307 307 307 307 307 307 307 307 306 306 307 307 307 307 308 308 307 308 308 308 308 308 308
325 324 324 324 324 323 324 323 323 323 321 320 319 317 316 313 309 307 305 302 301 297 295 301 308 308 305 302 303 305 305 307 306 302 303 308 309 308 309 309 308 309 308 309 310 309 309 309 309 309 309 309 309 309 309 310 310 311 311 310 309 308 308 307 307 307 307 306 307 307 307 306 306 307 306 306 307 307 307 307 308 308 308 308 308
324 324 323 324 323 323 323 323 322 322 321 320 319 318 317 316 312 309 306 302 300 297 296 302 307 308 305 303 303 303 303 304 305 302 303 308 309 308 308 309 308 309 309 309 310 310 309 309 309 309 309 309 309 309 310 310 310 311 311 310 309 309 308 307 307 307 307 307 307 308 307 307 307 307 307 306 306 306 307 307 307 307 307 307 306
324 323 323 323 323 322 322 322 321 322 321 320 319 318 317 316 315 311 307 303 300 298 299 304 307 307 305 303 301 299 298 299 299 300 304 307 308 307 308 308 308 309 309 308 309 310 310 310 310 310 309 309 309 309 309 309 310 310 310 309 309 309 308 307 307 307 308 308 308 308 307 307 307 307 307 307 306 305 307 307 306 306 306 305 305
Wind_Speed
6 6 8 8 9 10 10 11 11 12 11 12 14 14 14 13 15 15 15 15 15 15 14 14 14 14 14 14 15 16 17 16 16 16 14 14 17 16 17 20 22 22 21 22 23 23 25 27 26 24 25 26 27 29 29 29 29 28 29 31 32 31 30 29 28 26 26 27 27 27 27 27 27 27 27 28 28 29 29 30 31 31 31 31 31
7 7 8 8 9 10 10 10 11 12 12 12 14 14 14 14 16 15 14 15 16 15 14 15 15 14 15 15 16 16 16 16 16 17 15 15 17 18 20 22 21 21 21 23 23 22 24 27 26 24 24 25 28 29 29 30 29 29 31 32 32 32 30 28 27 26 27 28 28 29 28 28 28 27 27 27 27 28 29 29 31 31 31 32 32
10 9 8 8 9 10 11 11 12 12 12 13 14 14 14 14 16 14 14 15 15 16 15 15 15 15 17 16 15 16 16 16 16 15 15 15 18 20 20 19 19 20 22 23 23 23 25 27 27 26 25 25 28 29 29 31 30 30 32 32 31 29 28 26 26 25 27 29 30 30 29 29 29 28 27 27 27 27 28 29 30 31 32 32 31
10 10 7 8 10 10 11 11 12 13 12 13 13 14 14 14 16 14 15 15 14 15 14 15 16 16 18 16 16 17 16 16 15 15 15 16 17 18 18 18 19 20 22 24 24 25 25 25 26 28 27 25 27 28 30 31 30 30 32 32 31 29 28 25 26 26 27 29 31 31 29 29 29 29 28 27 27 27 28 29 30 31 32 31 32
7 9 6 7 9 10 10 12 12 12 13 13 12 13 14 15 16 14 15 16 16 15 15 16 16 17 18 16 16 17 16 17 16 15 16 17 18 18 19 19 19 21 23 24 26 27 26 25 26 27 27 26 26 27 31 32 29 30 33 32 31 31 29 25 25 27 27 28 30 30 28 27 27 28 28 27 27 27 27 28 29 30 31 31 32
8 8 7 7 9 10 10 11 12 12 13 13 11 12 15 17 17 16 17 16 15 17 16 16 17 18 19 16 16 19 19 17 15 15 16 16 17 18 18 18 20 22 23 24 27 27 26 27 26 25 26 26 26 27 30 32 29 30 32 32 33 33 29 25 26 28 28 28 29 29 27 26 25 26 27 26 26 26 27 28 29 30 30 30 31
8 8 7 8 9 9 10 13 12 12 13 14 10 13 16 18 17 16 19 17 16 17 16 17 19 19 20 18 18 21 21 17 14 15 16 16 18 18 18 18 20 21 22 25 27 26 26 26 25 24 26 26 26 27 30 31 30 30 32 33 34 33 29 25 27 29 29 28 28 28 27 25 25 25 25 25 25 25 26 27 29 29 30 30 31
8 9 7 7 8 8 10 12 10 11 13 12 12 14 16 19 18 16 18 20 19 18 17 18 20 20 20 19 20 21 20 17 14 15 15 15 17 17 16 17 19 21 23 27 27 26 25 25 25 25 25 26 27 27 30 32 31 32 33 34 34 34 30 28 29 30 30 30 28 28 27 26 25 24 24 24 23 24 25 27 28 29 29 30 31
7 9 7 6 8 9 9 11 9 10 11 11 12 13 15 19 21 18 17 19 18 19 18 19 21 21 20 20 22 20 17 15 14 15 15 14 14 16 16 17 18 20 23 27 27 26 24 25 27 26 25 27 28 27 30 32 32 33 34 34 35 34 32 31 32 32 31 31 30 29 28 26 24 23 23 23 22 23 25 26 27 28 28 29 31
7 9 9 5 5 8 10 10 11 11 11 11 11 12 15 19 20 18 17 17 18 18 18 21 22 21 20 22 22 18 16 15 13 12 13 15 18 19 18 17 18 22 25 26 27 26 25 25 27 27 26 28 29 27 29 31 32 34 34 35 36 34 33 34 34 34 32 31 30 30 29 26 24 23 22 22 22 22 24 25 26 26 27 28 30
7 10 12 8 7 10 9 10 11 12 13 12 11 12 14 16 18 19 17 15 17 17 18 22 22 20 20 22 21 17 15 14 10 10 14 17 18 19 17 18 20 24 26 27 28 26 25 26 27 27 27 29 29 26 28 31 33 34 34 36 36 34 35 35 34 34 33 32 32 31 30 27 24 22 21 21 21 22 23 24 24 25 25 27 29
7 9 12 10 12 13 9 10 11 12 13 13 13 13 13 15 17 20 17 14 16 16 18 23 21 21 21 22 21 15 12 13 12 12 16 17 16 18 18 19 22 25 27 28 29 27 26 27 27 27 27 29 28 26 29 32 33 33 34 36 37 36 36 36 36 35 35 36 35 33 31 28 24 21 20 20 20 21 22 22 23 23 24 26 28
7 9 12 10 12 14 10 10 10 11 13 12 13 13 13 15 17 20 17 15 17 15 18 22 22 23 24 23 21 14 9 14 16 14 17 17 14 17 19 18 21 25 27 28 29 29 27 26 25 27 27 29 28 26 30 33 33 33 35 37 38 38 38 37 37 37 38 39 38 34 30 27 23 19 18 18 18 19 20 21 21 22 24 26 28
6 9 11 7 11 14 11 10 11 12 12 11 12 13 14 13 15 19 17 15 16 16 17 20 22 24 24 24 24 19 13 14 20 18 17 17 15 17 19 19 21 25 27 28 29 30 28 25 25 27 27 28 27 26 30 33 34 35 36 37 38 38 38 38 39 40 41 42 39 34 28 24 21 17 16 16 16 18 19 19 20 22 24 26 27
5 7 7 6 14 14 11 10 12 13 12 12 12 13 13 13 15 19 17 16 15 14 16 18 21 22 22 22 23 24 18 17 26 23 16 18 19 19 20 21 22 27 28 27 28 30 28 25 25 28 28 28 27 26 30 33 34 36 36 38 40 39 39 39 40 42 42 38 33 29 22 18 16 14 13 13 14 16 17 18 20 22 23 24 26
6 7 6 9 15 12 10 9 8 10 12 12 12 12 13 13 15 16 15 16 16 14 14 15 17 19 22 22 21 21 18 23 31 23 16 21 23 21 22 22 25 29 28 28 29 29 28 25 25 29 29 27 27 26 29 33 35 36 38 41 41 40 41 41 40 39 37 31 24 19 13 11 11 10 10 11 12 13 14 16 18 20 21 23 24
7 6 7 10 12 11 12 9 6 8 10 12 12 12 12 11 13 15 13 14 16 16 15 13 13 15 18 20 20 18 19 26 30 24 22 25 24 24 23 23 27 29 27 28 30 29 28 27 27 30 29 26 26 26 28 33 34 35 39 43 42 42 43 42 39 35 29 21 15 9 4 4 6 7 7 8 9 10 11 14 16 17 19 21 22
7 6 8 9 10 13 12 8 8 9 10 13 13 11 12 11 11 14 14 12 13 15 15 14 13 13 13 16 17 17 20 25 24 24 29 28 24 25 24 25 28 28 26 27 28 29 29 27 28 30 28 26 26 26 29 33 33 33 38 42 44 46 43 40 37 30 22 16 12 7 3 3 4 5 5 6 8 9 11 12 14 16 18 19 20
8 7 8 8 10 12 9 8 8 9 10 13 12 10 12 12 9 11 15 13 13 15 15 14 15 14 12 15 17 17 18 20 20 21 26 29 28 27 26 26 28 27 26 26 25 28 29 27 28 29 27 26 26 27 31 33 32 32 37 41 46 48 41 39 36 24 17 16 11 8 5 3 4 4 4 5 7 9 11 10 12 14 16 18 19
9 9 9 9 10 9 8 8 8 10 12 11 10 10 13 12 8 10 15 14 14 16 15 13 14 17 15 15 17 18 16 16 18 19 21 25 28 29 29 29 28 25 25 26 24 26 28 26 28 29 27 25 25 29 32 32 31 33 38 41 46 50 43 40 35 20 16 15 9 8 6 4 3 3 4 5 7 8 10 11 11 12 15 18 18
10 9 10 9 7 8 7 8 8 10 12 11 10 9 11 12 7 6 11 13 14 15 15 13 13 16 16 16 18 19 18 16 17 20 20 21 24 28 30 31 31 27 26 27 24 25 28 27 28 30 28 23 24 31 32 31 32 34 38 40 45 51 45 39 32 18 16 15 8 7 7 4 4 4 4 6 7 8 10 11 12 12 14 16 16
9 9 10 7 5 9 9 8 8 10 13 12 10 9 10 11 7 5 8 9 11 14 14 13 13 15 15 16 19 19 18 17 19 21 22 21 22 26 27 28 31 29 28 27 23 23 26 27 28 30 28 22 25 33 32 31 32 34 38 38 42 51 46 38 32 22 16 14 10 9 8 5 4 6 5 7 9 10 11 12 12 12 13 14 15
10 10 9 5 5 11 11 9 8 9 12 11 10 11 10 9 6 7 10 8 10 15 13 12 13 14 15 14 17 17 15 17 19 20 21 22 22 24 25 26 27 27 27 26 22 21 24 28 29 30 28 21 25 34 33 30 31 33 38 38 41 51 49 38 34 28 19 14 12 9 7 6 5 7 7 9 10 10 12 12 11 11 13 14 14
9 9 9 7 9 12 10 10 10 9 11 10 10 11 9 7 4 5 12 9 12 17 12 12 14 14 15 14 15 15 12 14 18 18 19 21 22 22 24 25 25 26 25 24 22 19 23 29 29 29 27 20 24 33 33 31 31 31 36 39 40 48 51 42 35 32 24 14 11 10 8 8 8 8 9 10 9 10 12 12 11 10 12 13 13
9 10 9 7 10 13 11 12 11 9 10 9 11 9 7 8 4 4 11 9 12 16 10 10 15 15 16 15 14 11 11 14 16 17 18 19 21 22 24 24 24 26 25 23 22 18 24 30 28 27 26 20 23 32 33 31 31 30 32 38 40 44 51 48 37 31 27 17 11 10 10 9 10 10 11 11 10 11 13 13 12 12 13 12 11
10 9 8 9 12 14 14 13 11 10 11 9 11 9 7 9 6 5 10 9 12 14 9 10 13 15 16 15 12 9 12 15 14 15 18 18 20 22 24 24 24 25 23 23 22 19 25 29 26 26 26 21 24 31 32 31 30 29 29 35 40 41 47 51 43 30 26 21 12 9 11 9 10 11 12 12 12 13 13 14 15 14 14 13 11
11 10 12 13 14 14 14 13 11 11 11 10 10 8 6 9 8 6 8 9 13 12 10 11 12 14 15 14 11 8 11 15 14 14 16 17 19 20 22 24 24 25 23 23 23 20 25 28 24 25 25 22 24 29 31 29 28 28 29 33 38 40 43 49 49 35 24 22 17 10 9 9 10 11 13 14 13 14 14 14 15 13 11 12 11
13 12 14 15 14 14 14 13 12 12 11 10 10 9 8 8 7 7 7 9 14 12 9 12 13 14 14 11 10 8 10 14 13 13 13 15 18 18 19 21 22 23 23 23 23 21 24 27 23 23 23 21 22 26 29 29 28 28 30 34 37 40 42 45 50 43 26 21 20 15 11 11 12 12 14 15 15 15 15 15 14 11 8 9 10
15 14 14 15 14 14 14 13 11 12 12 11 10 9 9 8 6 7 7 9 15 11 8 12 13 13 13 9 8 9 12 14 12 12 13 15 17 17 17 18 19 20 21 22 22 21 24 25 22 22 22 20 18 23 28 30 29 30 31 33 35 39 41 42 47 48 35 22 20 21 17 13 14 15 16 16 16 16 15 14 13 11 10 11 12
15 15 15 15 15 15 14 13 12 13 13 13 12 10 9 8 7 7 6 9 13 10 8 12 12 12 12 9 5 7 12 14 12 13 14 14 16 16 15 16 17 18 19 20 20 20 24 24 21 23 22 20 17 19 27 30 28 31 32 31 33 36 39 41 44 48 43 32 25 26 27 21 17 19 19 17 17 16 14 14 13 12 12 13 14
14 15 15 15 15 14 14 14 14 13 13 14 14 11 9 8 8 7 7 10 10 8 10 12 11 10 11 9 6 7 13 15 11 12 13 13 15 15 14 16 17 17 17 19 19 19 22 23 21 21 19 18 17 15 22 29 28 30 34 32 31 34 37 39 41 45 48 43 34 28 28 27 23 22 23 21 19 18 17 15 13 11 12 13 14
17 16 15 15 14 13 12 13 13 12 13 14 14 13 10 8 7 7 10 11 7 7 11 11 9 10 10 8 7 9 14 13 9 12 13 13 15 13 13 15 15 16 17 18 19 19 19 19 19 19 18 18 19 16 18 26 29 29 33 32 31 33 37 38 39 42 46 49 47 37 30 26 23 22 23 22 21 19 19 18 16 14 13 13 15
17 18 16 15 14 13 12 13 13 12 12 12 12 14 12 8 7 9 12 12 7 7 10 9 9 10 10 8 6 8 13 11 9 13 12 11 13 12 13 15 14 16 16 17 19 19 19 18 17 19 19 18 19 18 17 22 29 30 30 31 31 33 36 36 37 41 42 45 52 51 44 37 30 26 23 23 24 24 24 26 25 22 20 18 20
16 17 17 15 14 13 13 14 13 12 12 11 12 15 13 8 8 8 11 12 10 8 8 8 9 10 9 8 5 5 10 11 10 12 12 11 12 12 13 15 15 16 15 15 18 19 19 18 17 17 19 18 18 18 17 19 26 29 28 29 31 31 34 35 36 39 39 40 46 51 51 48 43 39 34 31 33 33 33 34 32 31 30 30 30
16 16 16 15 14 13 14 15 14 13 13 13 14 15 12 9 8 8 8 11 11 8 7 9 10 9 8 8 7 5 7 10 10 10 11 10 10 12 14 13 15 15 13 13 17 18 18 17 16 16 18 19 17 17 19 19 20 25 26 26 28 30 33 35 36 38 37 36 39 44 47 48 46 45 42 40 40 39 38 37 37 38 38 39 39
16 16 16 16 15 15 15 14 15 15 13 13 15 14 13 10 9 9 8 8 10 8 8 10 10 10 9 7 8 7 6 9 10 8 10 9 8 12 13 11 13 15 13 13 14 15 15 14 14 16 17 17 17 16 19 19 17 22 25 24 24 27 32 34 35 36 35 34 35 38 42 44 42 42 42 41 41 41 40 39 39 40 39 39 39
16 16 16 16 16 16 16 15 16 15 12 12 13 13 14 13 11 11 8 9 12 9 7 10 9 10 9 7 8 8 6 8 10 7 8 7 6 12 13 9 9 12 13 13 12 12 13 13 14 15 16 16 15 15 18 19 17 20 25 24 21 24 30 33 34 34 33 33 34 35 37 39 39 39 39 38 37 38 38 37 37 36 36 35 34
16 16 16 16 16 16 16 15 16 14 12 14 16 15 15 13 11 13 11 10 10 7 7 10 8 8 9 7 8 9 6 8 10 7 7 6 6 10 13 11 7 8 12 12 10 10 11 12 13 14 15 15 14 14 16 17 17 20 24 25 23 23 28 33 34 33 32 33 36 36 35 35 36 37 37 36 35 34 34 34 33 33 32 32 32
17 17 17 16 16 17 17 17 17 14 13 17 20 19 18 14 10 11 11 11 10 8 8 9 7 7 8 8 8 9 9 10 9 7 6 5 6 8 12 12 7 6 10 11 9 9 10 11 13 13 15 15 13 13 14 14 16 20 22 24 24 24 27 31 33 33 32 32 36 38 37 35 34 35 36 35 33 32 31 30 30 31 31 31 31
18 18 17 16 17 18 19 19 18 18 17 19 22 21 19 16 11 10 13 14 11 7 7 8 7 7 6 7 9 12 12 9 7 6 5 6 7 8 12 15 9 5 9 10 9 9 10 11 13 12 13 15 14 14 13 13 16 20 21 22 23 24 26 30 32 33 33 33 35 37 38 37 35 35 35 35 33 31 30 30 29 30 30 30 30
20 21 20 20 20 20 18 18 20 23 23 22 22 20 17 14 12 12 15 14 10 8 9 9 8 7 5 6 11 13 11 6 3 5 5 6 9 10 12 15 11 5 7 9 9 10 10 11 13 13 13 15 15 15 15 15 16 18 20 22 24 23 25 28 30 31 33 34 35 37 38 39 38 37 37 38 36 33 32 31 30 30 29 29 30
22 23 23 23 23 21 18 18 21 26 27 25 22 20 18 15 12 14 15 14 11 11 12 10 7 7 5 4 9 12 9 3 2 5 6 6 9 10 12 15 13 8 7 8 10 10 10 11 12 13 13 13 13 15 16 15 15 15 18 22 24 23 24 27 28 30 32 34 35 37 38 38 39 40 40 40 38 36 35 34 32 32 31 30 31
24 24 24 24 24 23 21 19 22 26 27 25 22 20 19 17 15 14 14 15 15 13 12 10 7 6 4 5 8 9 6 3 2 3 5 6 7 9 11 13 13 11 8 8 9 10 9 10 10 12 14 13 12 13 15 15 15 15 17 20 22 22 24 25 27 28 30 32 35 38 37 35 36 39 39 38 37 36 37 36 35 35 34 33 32
25 25 26 26 24 22 20 19 23 25 25 25 24 21 19 18 17 16 14 14 16 15 13 11 8 6 7 8 7 4 3 6 5 3 4 5 5 7 9 10 12 13 10 8 9 9 8 8 9 12 13 12 11 13 15 16 15 16 17 18 19 22 25 27 27 26 27 31 36 38 36 33 34 38 38 37 36 36 36 35 35 35 35 35 35
24 25 26 25 23 21 19 20 24 26 25 25 24 22 21 20 19 19 15 13 15 15 14 10 8 9 10 9 5 2 3 7 6 4 5 3 2 5 6 7 11 13 11 8 8 8 6 5 7 10 12 11 12 13 14 14 14 15 17 19 20 22 24 26 26 26 27 30 35 37 35 31 31 34 37 35 34 34 34 33 33 33 34 34 35
22 23 23 23 23 23 23 24 26 27 27 27 25 23 22 20 19 19 16 13 14 16 15 10 8 10 10 8 5 5 5 8 7 6 7 4 0 3 5 5 8 13 11 7 7 8 6 6 7 10 10 11 12 12 11 12 14 14 16 17 18 20 22 23 26 27 28 30 32 35 35 31 29 32 34 32 31 31 32 31 31 31 31 32 33
22 23 23 23 24 24 25 26 27 27 28 29 27 25 22 19 19 19 17 14 13 15 16 12 10 13 13 10 7 8 8 10 9 8 9 6 1 2 3 3 4 8 9 7 7 8 8 8 8 10 10 10 11 10 10 12 14 15 15 15 17 19 21 23 25 28 29 29 30 34 35 31 30 34 34 30 29 30 30 30 29 29 29 30 30
23 23 22 22 22 23 24 25 26 26 26 25 24 22 21 19 19 18 16 15 14 14 14 12 11 14 13 9 7 7 8 10 9 8 9 7 3 3 2 2 3 5 6 5 7 8 8 8 9 10 10 9 9 9 9 10 12 13 14 14 17 19 21 23 25 26 27 27 28 31 34 32 30 33 33 29 28 29 29 29 29 28 28 28 27
24 23 21 20 20 22 24 24 25 25 24 22 20 20 20 19 19 18 16 15 15 14 12 10 11 12 10 7 7 7 7 9 10 8 9 9 5 5 3 1 3 4 4 3 6 8 8 9 9 9 8 9 9 9 8 8 9 12 13 14 17 19 20 22 23 23 24 26 27 28 31 30 28 29 31 29 29 29 28 28 28 27 27 27 27
23 23 22 21 21 22 23 23 23 23 23 22 21 21 21 20 18 18 16 15 14 13 11 9 10 12 11 9 9 9 8 8 9 8 10 10 7 5 5 3 2 4 5 3 3 6 9 9 9 9 8 9 10 11 9 8 9 10 12 14 16 18 20 22 22 22 22 22 23 24 26 27 24 25 28 28 27 28 27 27 28 28 27 27 27
20 21 21 21 21 21 22 23 22 21 21 22 21 21 21 21 19 18 16 15 14 13 9 8 10 13 12 11 10 10 9 8 8 9 12 11 8 7 5 5 4 2 3 2 2 3 7 8 8 9 8 8 10 11 10 10 9 9 12 15 15 16 19 22 22 22 19 16 16 18 21 22 19 20 23 25 24 24 25 27 29 29 29 27 26
Wind_Direction
6 22 357 349 353 353 350 351 352 346 351 350 344 345 345 348 344 340 343 338 336 334 337 336 328 329 328 319 313 312 312 311 307 310 317 313 311 309 302 307 310 310 315 316 318 319 317 319 322 322 323 325 326 329 331 330 328 323 320 319 318 317 316 314 313 311 305 301 297 292 288 284 281 279 276 272 267 262 259 256 252 248 244 242 238
353 40 6 352 351 348 352 349 348 346 349 350 343 345 349 349 340 339 342 338 336 338 341 332 329 332 321 317 323 322 316 310 308 310 312 309 304 304 309 315 316 316 316 316 319 319 317 319 321 324 323 323 326 329 331 330 327 323 321 323 322 318 317 316 313 313 309 305 301 296 290 285 281 279 278 274 268 263 259 256 252 248 243 240 238
355 23 5 356 350 347 355 348 344 344 347 349 345 345 349 348 338 339 345 337 334 341 342 331 330 329 320 325 327 321 316 310 312 311 308 308 306 309 313 315 318 320 318 318 319 318 317 318 320 324 323 324 325 327 331 330 327 323 323 328 327 321 320 319 315 316 314 311 308 303 294 286 280 278 277 275 269 262 258 255 252 248 243 239 237
359 357 352 5 353 348 353 342 340 345 349 349 346 345 346 344 336 340 347 339 340 344 340 334 332 329 326 332 327 322 321 316 315 311 306 305 307 314 314 315 319 319 319 319 318 317 317 318 321 323 323 326 326 327 331 330 328 325 325 331 331 327 324 319 318 320 317 316 313 308 299 287 280 277 275 274 269 262 256 254 252 248 243 239 235
357 345 359 13 350 344 348 340 338 348 354 346 345 348 344 342 335 342 349 341 346 347 342 337 331 330 330 331 329 325 323 317 313 309 307 302 304 314 313 313 318 320 322 320 317 317 319 321 323 323 323 327 326 326 331 332 330 326 327 330 331 333 330 321 321 322 319 317 317 314 304 292 283 276 274 272 267 261 255 252 251 248 244 241 237
348 346 4 18 352 339 342 336 337 354 353 332 339 355 344 339 337 344 347 342 344 343 344 337 331 334 333 336 335 323 319 316 311 313 314 309 309 313 312 313 320 324 324 319 319 321 324 324 322 323 324 325 327 327 331 333 331 327 328 328 327 334 335 325 321 321 318 317 318 317 309 298 288 278 273 270 265 259 253 251 250 247 242 238 237
345 346 358 18 350 336 341 332 338 356 342 323 351 10 347 336 338 346 347 347 349 344 344 337 333 337 337 342 333 320 322 323 322 321 315 311 311 315 318 318 321 324 321 316 319 323 324 322 323 326 324 323 326 328 331 333 331 328 328 328 326 332 337 329 320 319 318 317 316 316 312 302 291 282 274 269 263 256 251 249 248 246 240 234 233
346 346 353 11 344 340 342 324 330 343 330 335 5 6 346 336 341 352 348 347 348 344 342 335 334 338 339 339 327 323 331 333 332 326 319 318 315 318 323 322 323 322 316 316 320 323 323 324 330 331 327 327 327 328 330 332 332 330 329 329 327 330 333 330 324 321 318 316 315 314 313 305 294 284 275 268 262 256 250 248 246 244 239 233 231
340 340 339 358 349 338 321 308 323 334 332 348 0 358 350 342 345 353 350 346 344 342 342 336 336 340 339 335 331 334 341 336 334 332 329 322 308 307 313 320 325 319 313 317 324 327 326 329 333 333 332 335 332 328 330 332 331 330 331 330 330 329 329 328 326 322 318 316 314 313 311 307 297 285 275 267 260 255 251 248 245 242 237 232 230
333 329 317 326 348 324 312 317 335 343 345 349 352 359 357 348 344 347 349 347 344 344 341 333 336 341 336 335 339 343 344 338 334 329 317 307 309 318 327 332 327 316 317 326 331 332 333 333 334 335 335 338 337 331 330 332 332 331 332 331 330 329 326 327 326 321 318 314 312 310 307 305 298 285 274 266 260 256 252 248 244 239 233 228 226
326 324 323 331 333 323 326 340 347 345 346 349 352 359 357 349 340 340 348 345 344 347 337 333 340 343 335 337 345 347 350 348 329 313 314 319 328 335 339 336 327 322 327 338 337 334 339 339 338 339 334 336 338 334 334 335 334 333 332 331 330 329 327 328 326 321 319 315 311 308 304 300 295 283 271 265 260 256 252 247 241 236 231 224 221
321 326 337 343 328 331 342 343 349 341 340 352 353 355 356 350 338 338 346 343 346 347 336 338 343 342 338 343 350 349 360 355 324 320 338 345 345 339 338 335 331 333 336 341 338 335 342 342 342 344 338 336 336 338 341 339 337 335 333 332 330 329 329 327 325 321 318 315 310 305 300 295 290 279 268 262 259 256 251 244 237 232 227 222 218
334 342 342 341 317 328 341 336 347 339 339 350 347 350 351 350 341 335 342 344 348 344 337 345 345 342 343 345 349 348 360 343 324 340 355 348 342 339 342 340 337 339 338 341 342 340 341 341 344 347 343 341 339 341 346 343 341 339 335 333 331 330 330 327 324 320 317 315 308 301 295 289 285 274 263 260 257 252 247 239 232 229 224 218 215
355 339 336 344 302 317 335 336 346 336 336 342 341 348 344 351 343 330 338 347 345 339 340 350 348 345 342 342 346 345 351 337 331 353 356 343 348 345 346 347 341 339 339 342 347 347 344 341 345 347 347 346 342 341 344 345 344 341 336 334 335 333 332 329 325 321 319 315 305 296 289 280 276 266 256 258 255 247 240 231 225 222 218 213 210
4 315 322 318 294 314 335 337 344 335 339 342 339 344 338 347 339 329 342 346 340 340 346 352 346 345 345 345 345 340 343 341 341 352 346 341 353 351 350 351 341 340 344 348 352 353 352 351 349 349 350 348 344 342 343 345 343 342 341 341 342 339 335 331 327 325 324 317 305 295 284 271 265 255 249 253 249 240 231 224 220 216 211 209 205
317 298 311 302 297 315 318 316 332 329 337 337 331 334 333 341 333 330 345 343 340 343 345 351 347 348 351 349 346 341 340 339 340 344 340 343 350 352 353 348 342 346 351 353 356 357 358 359 356 354 353 348 346 344 342 343 342 344 349 350 348 344 339 334 331 332 330 323 313 301 282 261 247 236 241 243 240 234 225 220 218 213 207 205 202
286 290 301 301 301 307 305 310 325 323 325 318 316 322 324 332 328 330 338 334 340 342 338 346 348 350 353 349 346 343 338 337 340 337 337 344 347 349 352 346 347 353 354 355 358 357 355 357 357 355 354 351 350 345 340 342 343 348 354 355 353 348 343 338 335 338 340 338 335 324 282 229 213 212 227 230 230 224 217 217 210 205 203 201 198
312 308 300 303 303 303 311 324 325 326 320 310 312 317 317 320 325 333 333 328 335 335 333 341 346 349 354 351 345 338 334 338 343 336 333 340 344 347 350 349 350 355 359 357 355 354 354 354 355 357 357 356 357 350 341 343 347 352 356 356 356 353 346 342 342 344 352 6 16 28 77 139 165 188 209 216 220 206 202 208 199 196 199 196 192
319 303 300 300 299 304 317 322 319 318 307 306 315 316 312 314 330 334 326 330 334 331 334 341 345 348 349 348 344 339 337 341 345 339 333 335 339 344 349 351 350 353 1 359 353 355 357 357 355 359 2 1 1 353 345 348 353 356 358 356 357 358 353 351 354 352 358 13 26 39 57 95 129 167 188 199 204 189 187 192 187 191 192 188 186
275 281 291 285 292 305 320 322 315 309 303 305 312 312 312 318 338 337 326 334 338 333 333 334 339 340 337 342 344 342 341 342 345 343 337 331 334 342 347 349 348 352 2 358 354 358 360 359 356 358 2 1 360 352 349 356 358 359 1 357 359 2 360 0 5 2 1 10 18 31 45 65 92 149 166 176 187 178 176 173 170 182 184 180 180
270 285 281 280 301 307 310 309 303 300 299 301 307 311 315 315 319 331 330 337 337 332 329 328 335 333 330 340 344 341 342 347 346 343 342 336 334 340 343 345 347 355 5 359 354 360 2 360 359 1 2 1 359 355 356 1 1 2 2 358 0 4 4 8 13 11 5 10 14 29 45 54 73 116 148 159 160 161 167 161 159 174 181 180 179
269 274 272 282 301 287 281 282 285 290 294 302 311 308 305 305 309 321 323 331 329 322 322 325 332 332 333 342 341 338 341 346 345 342 344 343 339 339 342 344 345 352 3 360 356 1 2 359 359 4 5 5 2 360 3 5 4 6 3 359 2 6 10 17 21 17 10 15 19 26 40 51 80 104 125 144 142 150 163 158 158 170 176 178 176
271 276 284 284 269 277 282 283 282 288 296 306 312 307 305 309 335 334 318 330 319 306 314 326 329 335 335 336 334 333 338 342 340 341 344 344 342 341 343 345 343 347 356 359 358 358 359 359 359 4 8 9 4 3 7 8 8 9 6 5 7 9 16 25 27 22 14 18 28 33 48 65 88 102 114 134 138 144 155 154 156 165 166 168 166
289 292 299 300 292 293 300 300 297 297 305 318 318 315 318 317 4 343 318 331 315 304 322 335 328 329 325 325 329 328 339 342 337 342 346 346 345 343 343 345 344 346 352 358 360 357 357 358 358 2 8 9 3 4 8 9 10 11 8 9 12 12 17 25 32 31 24 21 35 48 65 79 92 105 115 129 137 137 140 143 144 149 153 157 155
282 287 292 293 293 296 299 301 305 308 314 328 321 321 331 325 360 347 311 316 309 309 330 333 322 323 320 324 328 334 356 346 335 345 349 348 349 346 345 346 345 347 351 357 2 2 358 357 358 3 10 12 5 4 8 11 12 12 11 12 14 14 17 22 31 38 36 31 33 52 66 79 92 104 115 123 129 129 130 133 131 134 146 152 148
275 283 280 271 276 285 292 298 307 314 319 328 321 326 338 321 323 318 307 311 309 315 334 328 321 321 319 325 329 348 3 340 331 347 350 350 352 348 347 348 347 348 352 355 1 5 358 356 1 7 13 16 7 3 6 13 17 15 15 17 17 16 17 21 27 36 46 44 39 54 65 77 93 100 110 117 122 126 127 132 134 136 145 150 147
273 269 270 277 284 289 294 301 306 310 319 327 322 327 323 306 307 310 317 319 310 318 336 326 319 316 316 325 332 353 355 331 330 348 350 350 350 349 350 350 346 348 352 353 357 360 353 353 4 12 17 20 10 3 6 14 21 21 22 24 22 19 19 21 25 32 49 55 53 60 64 74 93 99 105 112 120 124 122 127 133 136 140 143 146
281 277 277 283 289 293 296 301 302 306 319 327 326 327 317 312 318 319 331 322 307 318 335 318 313 312 315 327 335 351 353 333 329 342 349 351 347 349 355 353 347 346 346 347 349 350 347 353 7 13 20 25 11 4 9 16 23 26 27 29 27 22 21 22 25 30 47 61 60 65 71 77 90 96 101 107 113 117 117 121 128 132 132 131 136
285 287 286 286 291 297 298 300 303 308 316 324 330 328 319 324 323 316 331 312 303 320 329 309 309 314 320 335 341 343 343 332 328 338 348 351 346 348 355 356 353 345 339 339 342 345 345 353 9 15 20 27 14 5 14 20 23 28 31 32 30 26 23 24 26 31 45 66 70 71 74 78 89 97 99 104 110 112 113 116 121 127 128 125 131
284 289 291 292 297 302 301 305 311 314 315 319 326 328 323 327 321 315 321 300 304 327 322 307 313 319 325 337 345 340 330 324 330 340 346 348 344 346 352 355 357 350 342 339 340 344 346 349 7 17 16 22 20 9 15 20 22 26 30 33 34 30 25 26 28 31 44 66 81 80 79 79 87 95 96 99 106 109 111 112 113 117 122 125 133
292 293 293 293 298 302 302 304 309 311 310 310 317 324 321 319 315 314 305 294 309 328 309 308 321 325 325 329 358 1 328 318 327 337 344 348 342 342 350 355 358 355 349 346 341 342 347 351 6 16 14 19 22 16 18 20 19 22 27 32 36 34 30 30 32 32 42 61 77 83 83 84 86 90 94 97 100 104 108 110 111 112 118 127 134
294 295 294 293 293 292 288 290 295 298 298 302 310 315 314 314 314 308 296 297 314 315 302 314 328 324 322 331 12 2 322 314 334 339 342 347 340 340 351 356 359 357 352 350 345 342 348 357 6 11 16 20 19 21 23 19 19 22 26 32 38 40 37 35 36 36 40 55 70 79 84 88 89 90 96 103 105 107 107 107 110 111 114 124 128
283 290 294 292 288 284 279 279 283 284 288 294 298 303 310 312 297 287 292 303 311 296 301 321 326 319 323 333 5 350 320 320 345 340 336 343 339 341 353 358 0 359 353 349 348 344 347 360 7 9 17 22 18 23 26 16 17 23 27 33 40 44 43 42 41 40 39 49 64 75 81 86 91 96 101 105 107 110 111 112 114 111 108 110 114
280 285 290 290 283 278 275 277 280 278 279 280 279 291 304 304 285 282 292 303 307 303 311 320 316 321 329 326 332 341 328 331 344 339 335 340 340 342 353 359 2 0 355 350 348 345 348 359 8 11 17 22 22 28 31 21 17 20 27 34 40 46 49 48 47 45 42 46 57 68 76 81 86 91 97 103 106 108 109 111 111 107 104 106 109
290 291 293 291 284 275 273 276 278 274 272 273 279 292 306 302 286 279 282 294 303 307 308 304 309 322 326 318 318 325 331 334 337 338 340 343 347 349 353 0 360 354 353 355 350 347 352 359 8 14 17 21 28 32 38 39 23 18 30 38 40 49 54 52 53 51 46 48 55 62 70 76 79 81 85 91 98 102 103 103 104 105 107 110 113
293 293 290 289 285 280 277 273 272 274 272 270 277 289 301 300 286 273 266 271 279 283 290 295 306 317 317 319 319 318 334 334 325 329 337 339 353 358 356 360 360 353 352 355 350 348 357 4 10 18 19 22 30 34 42 49 32 21 37 44 43 54 60 58 58 55 50 52 57 62 68 74 77 77 77 78 83 90 96 98 99 103 107 109 110
294 292 287 286 283 281 281 277 272 274 271 265 265 271 285 293 288 284 276 259 261 266 276 285 296 310 319 328 316 312 327 320 308 311 321 322 356 5 352 342 351 357 352 349 349 357 10 14 16 23 24 23 31 38 44 50 38 31 43 48 49 60 66 65 63 59 55 56 60 66 70 74 76 77 77 75 74 79 85 89 92 95 99 100 99
296 293 290 287 282 278 277 274 272 272 265 255 256 268 287 291 279 282 287 273 266 269 272 285 300 310 317 327 312 307 311 300 299 312 322 327 2 3 347 333 336 353 350 350 2 16 21 22 23 29 30 28 37 46 49 51 45 44 52 56 58 64 68 71 70 66 61 61 63 67 71 74 75 77 79 78 75 76 79 83 86 89 90 90 92
299 297 294 287 284 282 273 267 267 266 258 255 261 276 292 292 272 264 269 266 266 270 274 288 304 304 312 320 303 299 304 300 306 329 345 355 3 359 359 2 8 4 354 2 23 28 28 31 31 34 34 35 47 56 55 53 49 53 61 63 63 64 67 73 75 74 72 70 70 70 72 75 77 79 81 80 78 78 78 80 84 86 88 88 89
300 299 295 283 284 284 274 270 268 257 253 263 273 279 284 288 281 256 250 255 261 268 271 279 288 294 309 307 287 294 311 315 321 337 353 16 13 12 17 20 30 27 6 17 34 28 30 37 36 38 40 44 58 64 59 54 52 56 65 71 71 70 71 73 75 77 78 78 78 77 75 76 77 78 80 80 79 80 80 82 84 86 88 89 90
301 301 297 288 288 286 273 267 267 262 266 277 283 283 282 285 284 266 257 257 255 251 253 259 268 275 285 283 280 296 317 325 345 360 10 24 19 19 22 21 29 41 23 28 38 33 33 38 38 40 42 47 57 61 57 56 58 63 70 78 81 80 77 75 74 76 79 80 82 81 76 75 76 76 77 78 79 81 83 83 84 86 88 89 91
298 299 298 291 290 290 278 262 259 264 275 286 291 293 292 290 286 276 266 260 252 248 249 252 258 267 276 273 277 295 316 328 37 35 29 21 16 20 24 23 28 42 42 38 42 41 39 39 41 43 45 49 52 52 57 65 70 73 79 85 87 84 80 76 72 73 78 81 83 82 78 76 77 77 75 75 76 79 82 82 83 84 86 87 89
297 295 295 291 287 287 282 269 259 262 276 290 296 297 294 289 286 281 267 258 254 249 250 254 256 262 256 241 263 289 317 323 337 13 4 2 12 23 27 28 30 37 43 41 44 47 45 44 47 49 53 57 51 50 64 75 75 79 89 93 92 88 85 80 74 72 77 82 84 83 79 76 78 80 77 75 74 76 80 83 84 84 84 84 85
294 290 291 291 289 287 282 273 263 264 278 293 298 299 298 292 286 282 275 263 253 245 248 255 252 245 241 241 257 282 291 291 301 313 319 338 6 18 25 31 32 34 36 34 36 38 41 50 57 58 60 61 53 57 73 81 82 88 95 96 94 92 89 85 80 77 80 86 88 86 82 78 78 81 80 77 77 77 80 85 87 87 86 85 84
288 285 288 291 290 287 280 273 270 272 282 291 294 297 298 294 287 284 283 273 256 244 243 250 254 252 249 250 245 175 230 275 286 277 271 280 7 14 15 21 24 29 32 30 27 29 40 60 68 67 67 65 61 66 79 86 89 95 99 99 98 96 93 89 86 85 87 91 90 88 86 83 81 81 80 79 79 79 81 84 86 87 87 87 86
287 287 289 288 286 285 280 275 276 279 284 288 291 293 292 288 286 286 285 278 261 245 237 237 247 252 250 249 224 177 208 255 264 268 266 251 163 13 5 6 15 20 22 25 29 37 55 70 71 75 78 74 70 73 83 92 96 98 103 107 105 101 98 95 93 93 92 93 93 91 87 86 87 86 84 84 84 81 81 83 84 84 84 85 86
291 291 291 287 285 284 281 278 278 282 286 288 291 292 290 284 281 283 283 279 265 247 237 233 237 246 251 252 228 200 214 240 253 259 248 230 198 25 10 1 9 11 11 26 43 49 64 73 76 87 90 81 75 75 83 95 100 100 104 109 109 107 106 102 98 95 93 92 94 94 89 88 90 88 85 87 88 84 82 83 83 82 83 83 84
297 295 293 290 288 285 282 282 281 283 288 290 291 291 287 282 280 281 282 279 269 252 239 235 244 255 261 257 227 204 221 247 267 257 222 204 173 119 87 345 344 8 11 34 53 55 66 78 86 92 89 82 76 73 82 96 101 102 105 109 112 116 115 108 100 96 94 93 94 95 93 90 90 89 87 89 89 86 84 83 82 81 82 83 84
304 303 299 294 292 288 285 285 284 285 289 294 297 292 285 283 281 280 283 282 272 258 242 235 245 257 258 239 209 197 218 254 275 258 203 185 171 142 127 266 305 5 26 53 65 65 72 84 96 97 88 84 79 73 78 90 94 99 107 114 120 123 120 112 105 101 99 97 97 99 96 91 91 92 89 87 86 85 84 83 81 81 81 81 82
307 308 305 300 297 294 291 291 290 287 285 290 295 291 285 283 281 279 282 281 269 256 241 230 241 251 251 240 226 218 226 260 276 245 197 179 177 170 152 167 259 358 33 51 60 74 82 86 92 92 88 89 85 78 78 84 90 99 108 119 129 129 123 116 110 106 103 97 96 100 98 96 100 102 98 93 89 87 87 86 83 81 81 81 80
309 308 307 304 301 296 293 293 292 286 279 280 287 290 285 279 277 277 277 272 261 252 236 221 234 246 250 251 248 239 240 264 267 225 196 184 190 196 174 160 172 128 67 32 11 93 98 91 88 90 96 98 92 88 87 86 93 106 113 122 134 135 128 122 116 112 109 102 99 100 98 96 99 104 107 105 97 92 95 95 89 86 86 85 85